QPF
0.00 0.00 0.00 0.00 0.00 0.00 0.00 0.00 0.00 0.00 0.00 0.00 0.00 0.00 0.00 0.00 0.00 0.00 0.00 0.00 0.00 0.00 0.00 0.02 0.05 0.09 0.04 0.01 0.01 0.01 0.01 0.01 0.01 0.02 0.01 0.01 0.01 0.01 0.01 0.00 0.00 0.00 0.00 0.00
0.00 0.00 0.00 0.00 0.00 0.00 0.00 0.00 0.00 0.00 0.00 0.00 0.00 0.00 0.00 0.00 0.00 0.00 0.00 0.00 0.00 0.00 0.01 0.03 0.07 0.11 0.08 0.03 0.01 0.01 0.02 0.02 0.02 0.02 0.02 0.01 0.01 0.00 0.00 0.00 0.00 0.00 0.00 0.00
0.00 0.00 0.00 0.00 0.00 0.00 0.00 0.00 0.00 0.00 0.00 0.00 0.00 0.00 0.00 0.00 0.00 0.00 0.00 0.00 0.00 0.00 0.00 0.01 0.03 0.06 0.08 0.04 0.02 0.02 0.04 0.04 0.04 0.02 0.01 0.01 0.01 0.01 0.01 0.01 0.01 0.01 0.00 0.00
0.00 0.00 0.00 0.00 0.00 0.00 0.00 0.00 0.00 0.00 0.00 0.00 0.00 0.00 0.00 0.00 0.00 0.00 0.00 0.00 0.00 0.00 0.00 0.00 0.01 0.03 0.05 0.05 0.04 0.04 0.06 0.06 0.04 0.03 0.02 0.03 0.03 0.03 0.03 0.02 0.02 0.01 0.00 0.00
0.00 0.00 0.00 0.00 0.00 0.00 0.00 0.00 0.00 0.00 0.00 0.00 0.00 0.00 0.00 0.00 0.00 0.00 0.00 0.00 0.00 0.00 0.00 0.01 0.01 0.02 0.04 0.04 0.06 0.07 0.08 0.08 0.07 0.06 0.06 0.05 0.06 0.06 0.05 0.04 0.02 0.01 0.00 0.00
0.00 0.00 0.00 0.00 0.00 0.00 0.00 0.00 0.00 0.00 0.00 0.00 0.00 0.00 0.00 0.00 0.00 0.00 0.00 0.00 0.00 0.00 0.00 0.01 0.03 0.04 0.05 0.06 0.08 0.11 0.14 0.16 0.12 0.10 0.10 0.09 0.08 0.07 0.05 0.03 0.01 0.00 0.00 0.00
0.00 0.00 0.00 0.00 0.00 0.00 0.00 0.00 0.00 0.00 0.00 0.00 0.00 0.00 0.00 0.00 0.00 0.00 0.00 0.00 0.00 0.00 0.01 0.02 0.04 0.06 0.07 0.06 0.10 0.14 0.14 0.13 0.11 0.10 0.09 0.07 0.06 0.04 0.02 0.01 0.01 0.00 0.00 0.00
0.00 0.00 0.00 0.00 0.00 0.00 0.00 0.00 0.00 0.00 0.00 0.00 0.00 0.00 0.00 0.00 0.00 0.00 0.00 0.00 0.00 0.00 0.01 0.03 0.04 0.04 0.03 0.03 0.07 0.09 0.08 0.07 0.06 0.06 0.05 0.04 0.03 0.02 0.02 0.01 0.00 0.00 0.00 0.00
0.00 0.00 0.00 0.00 0.00 0.00 0.00 0.00 0.00 0.00 0.00 0.00 0.00 0.00 0.00 0.00 0.00 0.00 0.00 0.00 0.00 0.00 0.01 0.02 0.02 0.02 0.01 0.01 0.02 0.04 0.04 0.05 0.05 0.04 0.04 0.03 0.02 0.01 0.01 0.00 0.00 0.00 0.00 0.00
0.00 0.00 0.00 0.00 0.00 0.00 0.00 0.00 0.00 0.00 0.00 0.00 0.00 0.00 0.00 0.00 0.00 0.00 0.00 0.00 0.00 0.00 0.01 0.01 0.02 0.02 0.01 0.01 0.02 0.03 0.04 0.04 0.04 0.04 0.03 0.03 0.02 0.01 0.00 0.00 0.00 0.00 0.00 0.00
0.00 0.00 0.00 0.00 0.00 0.00 0.00 0.00 0.00 0.00 0.00 0.00 0.00 0.00 0.00 0.00 0.00 0.00 0.00 0.00 0.00 0.01 0.01 0.01 0.01 0.01 0.00 0.01 0.03 0.04 0.04 0.04 0.04 0.04 0.03 0.02 0.01 0.00 0.00 0.00 0.00 0.00 0.00 0.00
0.00 0.00 0.00 0.00 0.00 0.00 0.00 0.00 0.00 0.00 0.00 0.00 0.00 0.00 0.00 0.00 0.00 0.00 0.00 0.00 0.01 0.02 0.02 0.02 0.01 0.00 0.01 0.02 0.03 0.05 0.05 0.04 0.04 0.03 0.02 0.01 0.01 0.00 0.00 0.00 0.00 0.00 0.00 0.00
0.00 0.00 0.00 0.00 0.00 0.00 0.00 0.00 0.00 0.00 0.00 0.00 0.00 0.00 0.00 0.00 0.00 0.00 0.02 0.05 0.06 0.05 0.03 0.01 0.00 0.01 0.01 0.03 0.05 0.06 0.06 0.05 0.04 0.02 0.01 0.01 0.01 0.00 0.00 0.00 0.00 0.00 0.00 0.00
0.00 0.00 0.00 0.00 0.00 0.00 0.00 0.00 0.00 0.00 0.00 0.00 0.00 0.00 0.00 0.02 0.05 0.09 0.18 0.25 0.17 0.08 0.03 0.01 0.01 0.02 0.03 0.05 0.07 0.06 0.06 0.04 0.02 0.02 0.02 0.01 0.01 0.01 0.01 0.00 0.00 0.00 0.00 0.00
0.00 0.00 0.00 0.00 0.00 0.00 0.00 0.00 0.00 0.00 0.00 0.00 0.00 0.00 0.01 0.03 0.09 0.23 0.39 0.34 0.16 0.06 0.03 0.01 0.02 0.03 0.04 0.05 0.07 0.07 0.06 0.05 0.04 0.03 0.03 0.02 0.01 0.01 0.01 0.00 0.00 0.01 0.01 0.01
0.00 0.00 0.00 0.00 0.00 0.00 0.00 0.00 0.00 0.00 0.00 0.00 0.00 0.00 0.00 0.01 0.03 0.10 0.18 0.18 0.11 0.06 0.03 0.02 0.02 0.03 0.06 0.09 0.11 0.12 0.12 0.10 0.07 0.04 0.03 0.02 0.01 0.01 0.01 0.01 0.01 0.01 0.01 0.01
0.00 0.00 0.00 0.00 0.00 0.00 0.00 0.00 0.00 0.00 0.00 0.00 0.01 0.02 0.01 0.02 0.03 0.05 0.08 0.10 0.08 0.05 0.03 0.02 0.02 0.04 0.09 0.13 0.17 0.18 0.14 0.09 0.05 0.03 0.02 0.01 0.01 0.01 0.01 0.01 0.01 0.00 0.00 0.00
0.00 0.00 0.00 0.00 0.00 0.00 0.00 0.00 0.00 0.00 0.00 0.00 0.01 0.01 0.01 0.01 0.02 0.02 0.03 0.05 0.05 0.03 0.02 0.02 0.03 0.07 0.13 0.18 0.18 0.14 0.08 0.05 0.03 0.02 0.02 0.01 0.01 0.01 0.01 0.00 0.00 0.00 0.00 0.00
0.00 0.00 0.00 0.00 0.00 0.00 0.00 0.00 0.00 0.00 0.01 0.00 0.00 0.00 0.00 0.00 0.01 0.02 0.01 0.01 0.03 0.04 0.04 0.06 0.08 0.12 0.17 0.19 0.15 0.10 0.06 0.03 0.02 0.02 0.01 0.01 0.00 0.00 0.00 0.00 0.00 0.00 0.00 0.00
0.00 0.00 0.00 0.00 0.01 0.01 0.01 0.00 0.00 0.00 0.02 0.01 0.00 0.00 0.00 0.01 0.04 0.03 0.00 0.00 0.01 0.03 0.05 0.08 0.10 0.12 0.14 0.12 0.09 0.06 0.04 0.02 0.02 0.01 0.01 0.00 0.00 0.00 0.00 0.00 0.00 0.00 0.00 0.00
0.02 0.01 0.01 0.01 0.03 0.02 0.01 0.00 0.00 0.01 0.04 0.01 0.00 0.02 0.03 0.03 0.02 0.01 0.00 0.00 0.01 0.03 0.04 0.06 0.08 0.09 0.08 0.06 0.04 0.03 0.02 0.02 0.01 0.00 0.00 0.00 0.00 0.00 0.00 0.00 0.00 0.00 0.00 0.00
0.03 0.04 0.04 0.05 0.06 0.06 0.02 0.00 0.00 0.02 0.01 0.00 0.01 0.03 0.04 0.02 0.00 0.00 0.00 0.01 0.01 0.03 0.05 0.06 0.06 0.05 0.04 0.03 0.02 0.02 0.01 0.01 0.00 0.00 0.00 0.00 0.00 0.00 0.00 0.00 0.00 0.00 0.00 0.00
0.00 0.02 0.06 0.06 0.06 0.04 0.00 0.00 0.00 0.00 0.00 0.00 0.01 0.03 0.04 0.01 0.00 0.00 0.01 0.01 0.02 0.03 0.04 0.03 0.03 0.02 0.02 0.02 0.02 0.01 0.00 0.00 0.00 0.00 0.00 0.00 0.00 0.00 0.00 0.00 0.00 0.00 0.00 0.00
0.02 0.00 0.00 0.00 0.00 0.00 0.00 0.00 0.00 0.00 0.00 0.00 0.01 0.03 0.03 0.01 0.00 0.01 0.02 0.03 0.03 0.02 0.02 0.01 0.01 0.01 0.01 0.01 0.01 0.00 0.00 0.00 0.00 0.00 0.00 0.00 0.00 0.00 0.00 0.00 0.00 0.00 0.00 0.01
0.02 0.00 0.00 0.01 0.01 0.01 0.02 0.01 0.00 0.01 0.01 0.02 0.02 0.03 0.02 0.01 0.01 0.02 0.03 0.03 0.02 0.02 0.01 0.01 0.01 0.01 0.01 0.00 0.00 0.00 0.00 0.00 0.00 0.00 0.00 0.00 0.00 0.00 0.00 0.00 0.00 0.00 0.00 0.00
0.00 0.01 0.02 0.04 0.06 0.07 0.06 0.03 0.02 0.03 0.03 0.03 0.02 0.02 0.01 0.01 0.02 0.03 0.03 0.02 0.02 0.02 0.01 0.01 0.01 0.01 0.00 0.00 0.00 0.00 0.00 0.00 0.00 0.00 0.00 0.00 0.00 0.00 0.00 0.01 0.01 0.00 0.00 0.00
MSLP
1008.01 1008.36 1008.48 1008.40 1008.18 1007.90 1007.62 1007.39 1007.24 1007.14 1007.04 1006.91 1006.68 1006.33 1005.87 1005.33 1004.78 1004.28 1003.92 1003.73 1003.75 1003.99 1004.41 1004.99 1005.66 1006.38 1007.11 1007.84 1008.55 1009.25 1009.95 1010.65 1011.36 1012.06 1012.74 1013.39 1014.00 1014.55 1015.03 1015.45 1015.81 1016.13 1016.41 1016.67
1008.12 1008.30 1008.25 1008.05 1007.78 1007.53 1007.35 1007.28 1007.30 1007.36 1007.39 1007.31 1007.06 1006.64 1006.04 1005.35 1004.64 1004.01 1003.56 1003.34 1003.38 1003.67 1004.17 1004.83 1005.57 1006.34 1007.10 1007.84 1008.56 1009.27 1009.98 1010.72 1011.47 1012.23 1012.97 1013.67 1014.31 1014.88 1015.35 1015.75 1016.09 1016.38 1016.65 1016.91
1007.99 1008.00 1007.83 1007.56 1007.29 1007.12 1007.09 1007.21 1007.42 1007.65 1007.79 1007.74 1007.45 1006.90 1006.13 1005.24 1004.35 1003.58 1003.04 1002.79 1002.87 1003.26 1003.88 1004.67 1005.53 1006.40 1007.23 1008.01 1008.74 1009.45 1010.16 1010.90 1011.66 1012.43 1013.19 1013.91 1014.57 1015.13 1015.60 1015.98 1016.30 1016.59 1016.85 1017.12
1007.58 1007.47 1007.21 1006.92 1006.72 1006.68 1006.84 1007.18 1007.60 1007.99 1008.22 1008.19 1007.82 1007.13 1006.17 1005.06 1003.97 1003.05 1002.42 1002.16 1002.30 1002.80 1003.59 1004.55 1005.58 1006.59 1007.53 1008.36 1009.12 1009.83 1010.51 1011.21 1011.94 1012.69 1013.43 1014.13 1014.77 1015.32 1015.78 1016.16 1016.48 1016.76 1017.03 1017.31
1006.95 1006.74 1006.45 1006.20 1006.10 1006.24 1006.61 1007.17 1007.80 1008.35 1008.67 1008.63 1008.18 1007.33 1006.17 1004.86 1003.58 1002.51 1001.81 1001.55 1001.77 1002.41 1003.37 1004.53 1005.75 1006.92 1007.98 1008.90 1009.69 1010.38 1011.03 1011.67 1012.33 1013.01 1013.69 1014.35 1014.96 1015.49 1015.94 1016.31 1016.63 1016.91 1017.19 1017.48
1006.18 1005.92 1005.63 1005.45 1005.48 1005.80 1006.39 1007.16 1007.98 1008.67 1009.05 1009.01 1008.48 1007.50 1006.18 1004.69 1003.25 1002.08 1001.32 1001.08 1001.38 1002.15 1003.30 1004.65 1006.06 1007.40 1008.59 1009.58 1010.40 1011.08 1011.67 1012.24 1012.81 1013.40 1014.00 1014.60 1015.16 1015.66 1016.09 1016.45 1016.77 1017.06 1017.34 1017.63
1005.43 1005.12 1004.86 1004.75 1004.92 1005.40 1006.16 1007.11 1008.07 1008.86 1009.30 1009.26 1008.69 1007.62 1006.19 1004.59 1003.06 1001.82 1001.04 1000.84 1001.22 1002.12 1003.42 1004.94 1006.52 1008.00 1009.30 1010.37 1011.21 1011.87 1012.41 1012.89 1013.37 1013.86 1014.37 1014.89 1015.39 1015.85 1016.26 1016.61 1016.92 1017.20 1017.47 1017.74
1004.81 1004.49 1004.25 1004.21 1004.46 1005.05 1005.92 1006.98 1008.03 1008.89 1009.36 1009.33 1008.75 1007.66 1006.20 1004.57 1003.03 1001.79 1001.04 1000.89 1001.35 1002.35 1003.76 1005.41 1007.10 1008.69 1010.07 1011.19 1012.05 1012.69 1013.18 1013.59 1013.97 1014.37 1014.80 1015.23 1015.67 1016.08 1016.46 1016.78 1017.07 1017.33 1017.57 1017.80
1004.46 1004.13 1003.90 1003.89 1004.18 1004.80 1005.70 1006.77 1007.84 1008.70 1009.19 1009.18 1008.63 1007.59 1006.18 1004.62 1003.15 1001.99 1001.32 1001.24 1001.77 1002.83 1004.31 1006.02 1007.77 1009.42 1010.84 1011.98 1012.85 1013.47 1013.92 1014.27 1014.59 1014.91 1015.25 1015.62 1015.99 1016.35 1016.68 1016.97 1017.22 1017.44 1017.64 1017.83
1004.45 1004.12 1003.88 1003.85 1004.11 1004.68 1005.51 1006.51 1007.51 1008.32 1008.79 1008.81 1008.33 1007.39 1006.13 1004.73 1003.42 1002.41 1001.86 1001.87 1002.45 1003.55 1005.04 1006.75 1008.50 1010.14 1011.56 1012.70 1013.56 1014.17 1014.60 1014.91 1015.18 1015.45 1015.73 1016.03 1016.34 1016.64 1016.92 1017.16 1017.36 1017.54 1017.69 1017.82
1004.79 1004.46 1004.21 1004.13 1004.29 1004.73 1005.41 1006.24 1007.09 1007.79 1008.21 1008.25 1007.87 1007.10 1006.05 1004.89 1003.81 1003.01 1002.62 1002.74 1003.37 1004.47 1005.92 1007.57 1009.25 1010.83 1012.21 1013.32 1014.16 1014.77 1015.19 1015.50 1015.74 1015.97 1016.21 1016.46 1016.71 1016.95 1017.17 1017.36 1017.51 1017.64 1017.74 1017.83
1005.44 1005.12 1004.84 1004.69 1004.72 1004.98 1005.44 1006.04 1006.68 1007.22 1007.57 1007.62 1007.34 1006.77 1005.97 1005.10 1004.31 1003.76 1003.57 1003.80 1004.48 1005.55 1006.92 1008.47 1010.04 1011.51 1012.81 1013.87 1014.69 1015.29 1015.72 1016.02 1016.26 1016.48 1016.68 1016.89 1017.09 1017.28 1017.44 1017.57 1017.67 1017.75 1017.82 1017.88
1006.29 1006.01 1005.72 1005.49 1005.37 1005.42 1005.63 1005.97 1006.36 1006.72 1006.96 1007.01 1006.85 1006.48 1005.97 1005.41 1004.93 1004.65 1004.66 1005.02 1005.74 1006.77 1008.04 1009.44 1010.87 1012.21 1013.40 1014.39 1015.17 1015.76 1016.20 1016.51 1016.76 1016.96 1017.15 1017.31 1017.47 1017.60 1017.71 1017.79 1017.85 1017.90 1017.95 1018.00
1007.25 1007.02 1006.73 1006.44 1006.19 1006.04 1006.00 1006.07 1006.21 1006.38 1006.52 1006.57 1006.50 1006.34 1006.10 1005.86 1005.69 1005.69 1005.90 1006.38 1007.12 1008.11 1009.26 1010.51 1011.77 1012.96 1014.03 1014.93 1015.66 1016.23 1016.66 1016.99 1017.24 1017.43 1017.59 1017.73 1017.84 1017.92 1017.98 1018.02 1018.06 1018.09 1018.14 1018.20
1008.20 1008.04 1007.78 1007.45 1007.11 1006.79 1006.53 1006.37 1006.29 1006.28 1006.32 1006.36 1006.39 1006.41 1006.43 1006.48 1006.61 1006.86 1007.27 1007.86 1008.63 1009.55 1010.59 1011.68 1012.77 1013.80 1014.73 1015.53 1016.19 1016.72 1017.14 1017.45 1017.70 1017.88 1018.01 1018.11 1018.18 1018.22 1018.24 1018.26 1018.28 1018.31 1018.37 1018.47
1009.05 1008.98 1008.77 1008.44 1008.04 1007.60 1007.19 1006.84 1006.59 1006.45 1006.40 1006.44 1006.56 1006.74 1006.98 1007.29 1007.68 1008.15 1008.73 1009.42 1010.20 1011.07 1011.99 1012.93 1013.85 1014.72 1015.50 1016.18 1016.76 1017.24 1017.61 1017.91 1018.13 1018.29 1018.39 1018.46 1018.49 1018.49 1018.49 1018.49 1018.51 1018.56 1018.64 1018.77
1009.76 1009.76 1009.61 1009.31 1008.89 1008.41 1007.90 1007.45 1007.08 1006.84 1006.75 1006.80 1007.00 1007.32 1007.75 1008.27 1008.86 1009.52 1010.24 1011.00 1011.80 1012.61 1013.43 1014.22 1014.98 1015.68 1016.32 1016.88 1017.35 1017.75 1018.07 1018.32 1018.51 1018.64 1018.71 1018.75 1018.75 1018.74 1018.72 1018.72 1018.75 1018.82 1018.93 1019.08
1010.30 1010.36 1010.26 1010.01 1009.61 1009.12 1008.60 1008.10 1007.69 1007.41 1007.31 1007.40 1007.66 1008.09 1008.67 1009.35 1010.11 1010.91 1011.72 1012.54 1013.33 1014.09 1014.80 1015.47 1016.08 1016.63 1017.12 1017.55 1017.92 1018.23 1018.48 1018.67 1018.81 1018.91 1018.96 1018.98 1018.97 1018.96 1018.95 1018.96 1019.01 1019.10 1019.23 1019.39
1010.67 1010.75 1010.70 1010.49 1010.15 1009.70 1009.20 1008.72 1008.32 1008.07 1007.99 1008.12 1008.46 1008.98 1009.66 1010.46 1011.33 1012.22 1013.10 1013.93 1014.71 1015.41 1016.04 1016.59 1017.06 1017.47 1017.83 1018.13 1018.40 1018.61 1018.79 1018.92 1019.03 1019.09 1019.13 1019.15 1019.15 1019.16 1019.18 1019.22 1019.29 1019.40 1019.54 1019.71
1010.89 1010.97 1010.94 1010.77 1010.49 1010.11 1009.68 1009.26 1008.92 1008.73 1008.71 1008.90 1009.29 1009.89 1010.64 1011.51 1012.43 1013.37 1014.28 1015.12 1015.86 1016.51 1017.05 1017.50 1017.86 1018.15 1018.39 1018.59 1018.74 1018.88 1018.99 1019.07 1019.14 1019.20 1019.24 1019.27 1019.31 1019.36 1019.42 1019.51 1019.62 1019.75 1019.90 1020.04
1011.02 1011.06 1011.02 1010.89 1010.67 1010.36 1010.03 1009.70 1009.46 1009.35 1009.40 1009.66 1010.11 1010.75 1011.53 1012.43 1013.37 1014.32 1015.21 1016.03 1016.73 1017.32 1017.79 1018.16 1018.43 1018.62 1018.77 1018.87 1018.95 1019.02 1019.07 1019.12 1019.18 1019.24 1019.30 1019.38 1019.47 1019.58 1019.70 1019.84 1019.99 1020.15 1020.29 1020.42
1011.09 1011.07 1011.01 1010.91 1010.74 1010.52 1010.28 1010.08 1009.94 1009.92 1010.06 1010.38 1010.87 1011.53 1012.32 1013.20 1014.12 1015.03 1015.88 1016.65 1017.30 1017.84 1018.25 1018.54 1018.75 1018.88 1018.96 1019.00 1019.03 1019.05 1019.07 1019.11 1019.16 1019.24 1019.34 1019.47 1019.63 1019.80 1020.00 1020.20 1020.40 1020.58 1020.72 1020.83
1011.13 1011.06 1010.99 1010.90 1010.78 1010.65 1010.52 1010.43 1010.41 1010.49 1010.70 1011.07 1011.58 1012.23 1013.00 1013.83 1014.69 1015.53 1016.32 1017.01 1017.61 1018.08 1018.44 1018.69 1018.86 1018.95 1019.00 1019.01 1019.01 1019.01 1019.03 1019.06 1019.13 1019.24 1019.38 1019.57 1019.79 1020.03 1020.29 1020.55 1020.79 1021.00 1021.15 1021.24
1011.20 1011.08 1011.00 1010.94 1010.88 1010.84 1010.81 1010.83 1010.92 1011.09 1011.37 1011.77 1012.28 1012.90 1013.60 1014.35 1015.12 1015.87 1016.56 1017.18 1017.70 1018.12 1018.44 1018.67 1018.81 1018.90 1018.94 1018.95 1018.95 1018.95 1018.98 1019.03 1019.12 1019.25 1019.43 1019.66 1019.93 1020.23 1020.54 1020.85 1021.13 1021.36 1021.52 1021.60
1011.31 1011.18 1011.11 1011.09 1011.10 1011.15 1011.22 1011.35 1011.53 1011.78 1012.10 1012.51 1013.00 1013.56 1014.17 1014.82 1015.47 1016.10 1016.69 1017.21 1017.66 1018.03 1018.32 1018.54 1018.69 1018.79 1018.85 1018.88 1018.90 1018.93 1018.96 1019.03 1019.13 1019.28 1019.49 1019.74 1020.03 1020.36 1020.70 1021.03 1021.33 1021.58 1021.76 1021.84
1011.47 1011.37 1011.34 1011.38 1011.47 1011.61 1011.79 1012.01 1012.26 1012.57 1012.92 1013.32 1013.76 1014.24 1014.75 1015.27 1015.80 1016.30 1016.77 1017.20 1017.57 1017.90 1018.17 1018.38 1018.55 1018.68 1018.78 1018.85 1018.91 1018.96 1019.01 1019.09 1019.20 1019.35 1019.54 1019.78 1020.07 1020.39 1020.72 1021.06 1021.36 1021.62 1021.81 1021.91
Thickness
5754 5746 5745 5758 5768 5771 5775 5780 5788 5805 5826 5821 5814 5811 5819 5830 5829 5822 5822 5825 5827 5826 5826 5814 5803 5794 5785 5781 5777 5772 5765 5761 5755 5747 5739 5731 5725 5720 5714 5708 5702 5696 5692 5687
5743 5741 5761 5774 5778 5776 5772 5769 5777 5796 5816 5813 5807 5805 5811 5815 5819 5821 5818 5817 5820 5821 5815 5804 5793 5785 5776 5770 5768 5765 5760 5754 5748 5741 5735 5728 5719 5712 5705 5697 5690 5685 5680 5675
5739 5759 5773 5768 5769 5770 5772 5770 5773 5778 5793 5800 5792 5785 5795 5803 5811 5818 5822 5820 5818 5817 5806 5795 5787 5779 5770 5762 5760 5757 5752 5746 5740 5734 5727 5717 5709 5700 5692 5685 5679 5674 5669 5663
5749 5767 5773 5767 5766 5770 5761 5776 5773 5770 5765 5764 5775 5756 5782 5795 5800 5806 5813 5817 5814 5814 5805 5790 5782 5772 5765 5757 5753 5749 5743 5736 5729 5724 5716 5707 5698 5690 5683 5676 5668 5663 5659 5654
5751 5766 5767 5760 5766 5771 5766 5777 5772 5768 5760 5753 5760 5749 5765 5791 5795 5803 5813 5817 5814 5811 5803 5785 5775 5765 5757 5750 5743 5738 5731 5723 5717 5713 5705 5698 5689 5681 5673 5665 5657 5653 5648 5643
5761 5780 5779 5775 5779 5775 5772 5767 5763 5760 5752 5731 5748 5745 5751 5780 5793 5804 5814 5815 5808 5805 5795 5778 5767 5756 5746 5738 5730 5723 5716 5709 5704 5699 5692 5686 5677 5669 5661 5653 5646 5642 5638 5634
5743 5762 5780 5783 5767 5769 5762 5741 5723 5720 5721 5727 5757 5752 5761 5790 5803 5807 5806 5804 5803 5798 5780 5763 5751 5741 5729 5722 5715 5708 5701 5693 5689 5684 5678 5672 5665 5658 5651 5644 5638 5634 5630 5624
5731 5738 5765 5774 5762 5753 5754 5742 5717 5708 5720 5742 5765 5757 5775 5797 5805 5805 5803 5799 5792 5783 5768 5752 5739 5727 5717 5708 5702 5695 5688 5680 5675 5670 5664 5659 5652 5648 5640 5633 5630 5624 5618 5611
5739 5749 5779 5782 5777 5762 5747 5746 5751 5732 5727 5722 5737 5757 5779 5795 5790 5791 5791 5788 5780 5766 5751 5738 5725 5714 5704 5696 5689 5682 5675 5668 5662 5657 5651 5645 5640 5635 5628 5622 5617 5612 5603 5598
5745 5736 5762 5780 5777 5767 5758 5753 5742 5728 5710 5706 5723 5739 5755 5771 5773 5777 5776 5773 5764 5748 5735 5722 5710 5700 5691 5683 5675 5668 5662 5656 5650 5645 5639 5633 5627 5621 5615 5611 5602 5596 5589 5581
5736 5722 5738 5758 5754 5748 5751 5745 5739 5735 5732 5714 5708 5730 5767 5760 5765 5766 5768 5767 5754 5738 5723 5711 5699 5689 5679 5669 5661 5654 5648 5643 5637 5632 5627 5620 5614 5608 5603 5597 5590 5583 5575 5568
5727 5718 5714 5734 5759 5769 5759 5750 5741 5719 5715 5719 5712 5725 5767 5761 5758 5752 5754 5758 5744 5727 5713 5700 5688 5676 5665 5656 5648 5641 5635 5630 5624 5619 5613 5606 5601 5595 5589 5582 5575 5569 5562 5556
5703 5699 5688 5701 5723 5744 5743 5746 5743 5734 5723 5713 5705 5719 5745 5742 5736 5733 5730 5722 5713 5704 5695 5685 5673 5662 5652 5643 5635 5628 5622 5616 5611 5604 5597 5590 5584 5578 5572 5566 5560 5555 5549 5542
5687 5683 5682 5684 5706 5714 5716 5724 5728 5723 5713 5710 5714 5719 5721 5717 5713 5709 5701 5692 5684 5681 5678 5669 5658 5647 5637 5628 5620 5613 5605 5599 5593 5587 5579 5572 5566 5560 5554 5550 5544 5539 5534 5528
5674 5667 5676 5689 5704 5710 5708 5709 5709 5699 5697 5697 5706 5701 5694 5699 5698 5694 5688 5679 5670 5665 5660 5652 5642 5630 5620 5612 5604 5596 5588 5581 5574 5568 5561 5554 5549 5544 5539 5534 5529 5524 5517 5510
5663 5654 5660 5668 5686 5694 5695 5703 5705 5703 5702 5701 5702 5687 5681 5685 5685 5679 5673 5666 5658 5652 5643 5634 5624 5613 5604 5596 5588 5579 5570 5563 5556 5551 5546 5540 5535 5530 5524 5518 5513 5507 5501 5494
5648 5644 5641 5645 5665 5670 5669 5687 5692 5695 5696 5688 5674 5660 5668 5664 5661 5658 5656 5654 5646 5637 5626 5615 5605 5594 5585 5577 5570 5562 5554 5548 5543 5539 5534 5530 5524 5517 5511 5505 5498 5492 5485 5479
5630 5627 5628 5633 5639 5630 5664 5688 5682 5674 5664 5664 5660 5655 5654 5649 5643 5639 5638 5634 5626 5616 5605 5593 5583 5574 5566 5560 5553 5546 5540 5535 5532 5528 5524 5518 5512 5505 5498 5491 5484 5478 5471 5465
5630 5619 5615 5617 5621 5634 5657 5657 5660 5653 5636 5641 5640 5641 5643 5643 5633 5617 5612 5609 5602 5593 5582 5571 5563 5556 5549 5543 5537 5532 5528 5526 5523 5517 5511 5505 5499 5492 5485 5477 5469 5464 5459 5454
5623 5617 5607 5608 5606 5609 5617 5634 5644 5638 5617 5620 5624 5624 5626 5628 5619 5594 5587 5582 5575 5567 5560 5552 5545 5539 5533 5528 5524 5521 5519 5515 5510 5505 5498 5491 5484 5477 5470 5463 5457 5452 5447 5442
5599 5602 5600 5599 5598 5610 5604 5623 5627 5607 5592 5606 5610 5610 5608 5600 5588 5573 5567 5560 5553 5547 5541 5535 5530 5525 5520 5517 5515 5512 5508 5503 5498 5492 5485 5477 5471 5466 5459 5452 5446 5441 5435 5430
5595 5592 5593 5593 5586 5585 5596 5605 5596 5588 5597 5598 5598 5596 5589 5577 5565 5556 5549 5542 5536 5530 5525 5520 5516 5513 5511 5509 5506 5501 5496 5491 5486 5480 5473 5466 5460 5454 5448 5442 5435 5428 5423 5418
5592 5593 5584 5580 5576 5583 5591 5589 5590 5591 5588 5588 5587 5583 5574 5562 5551 5542 5534 5527 5522 5517 5513 5511 5510 5507 5504 5500 5496 5491 5486 5481 5476 5470 5464 5457 5451 5443 5436 5429 5423 5416 5411 5405
5580 5588 5585 5581 5584 5584 5583 5583 5582 5581 5578 5578 5576 5571 5563 5550 5539 5530 5522 5515 5511 5508 5507 5507 5505 5502 5498 5493 5488 5484 5479 5473 5467 5461 5456 5450 5442 5433 5424 5418 5411 5405 5399 5394
5570 5573 5573 5573 5577 5576 5572 5567 5567 5566 5565 5563 5560 5555 5546 5536 5527 5519 5512 5508 5506 5506 5506 5504 5500 5496 5491 5485 5480 5475 5470 5464 5459 5453 5448 5441 5433 5425 5415 5407 5399 5393 5386 5380
5571 5567 5563 5560 5558 5555 5552 5552 5553 5550 5547 5543 5538 5532 5526 5521 5515 5511 5508 5506 5506 5505 5502 5498 5494 5489 5483 5477 5472 5467 5461 5456 5451 5446 5439 5432 5423 5415 5408 5400 5392 5384 5380 5375